Belen, NM

11:11 AM MDT on July 28, 2016 (GMT -0600)
Belen

Weather History for KE80 - October, 2011

Change the Weather History Date:

Tuesday, October 25, 2011

  Actual Average (KABQ) Record (KABQ)
Temperature  
Mean Temperature 66 °F 54 °F  
Max Temperature 73 °F 66 °F 81 °F (1950)
Min Temperature 59 °F 43 °F 22 °F (1935)
Degree Days  
Heating Degree Days 0 11  
Month to date heating degree days 167  
Since 1 July heating degree days 193  
Cooling Degree Days 1 0  
Month to date cooling degree days 7  
Year to date cooling degree days 1319  
Growing Degree Days 16 (Base 50)    
Moisture  
Dew Point 37 °F    
Average Humidity 33    
Maximum Humidity 43    
Minimum Humidity 27    
Precipitation  
Precipitation 0.00 in 0.02 in 0.94 in (1972)
Month to date precipitation 0.88  
Year to date precipitation 8.24  
Snow  
Snow 0.00 in - - ()
Month to date snowfall  
Since 1 July snowfall  
Since 1 September snowfall  
Snow Depth -    
Sea Level Pressure  
Sea Level Pressure 30.13 in    
Wind  
Wind Speed 7 mph (WSW)    
Max Wind Speed 15 mph    
Max Gust Speed 24 mph    
Visibility 10 miles    
Events      
T = Trace of Precipitation, MM = Missing Value Source: NWS Daily Summary

Daily Weather History Graph

Daily Weather History Graph

Search for Another Location

Airport or City:

Trip Planner

Search our weather history database for the weather conditions in past years. The results will help you decide how hot, cold, wet, or windy it might be!

Date:

Astronomy

Oct. 25, 2011 Rise Set
Actual Time 7:21 AM MDT 6:21 PM MDT
Civil Twilight 6:55 AM MDT 6:46 PM MDT
Nautical Twilight 6:26 AM MDT 7:16 PM MDT
Astronomical Twilight 5:56 AM MDT 7:45 PM MDT
Moon 5:58 AM MDT (10/25) 5:24 PM MDT (10/25)
Length of Visible Light 11h 51m
Length of Day
10h 59m
Waning Crescent, 2% of the Moon is Illuminated
Oct 25
Waning Crescent
Oct 26
New
Nov 2
First Quarter
Nov 10
Full
Nov 18
Last Quarter

Hourly Weather History & Observations

Time (MDT) Temp. Dew Point Humidity Pressure Visibility Wind Dir Wind Speed Gust Speed Precip Events Conditions
12:15 AM 67.1 °F 32.9 °F 28% 30.16 in 10.0 mi SW 6.9 mph - N/A   Overcast
12:35 AM 68.2 °F 32.9 °F 27% 30.16 in 10.0 mi SW 4.6 mph - N/A   Overcast
12:55 AM 67.5 °F 33.4 °F 28% 30.16 in 10.0 mi SW 8.1 mph - N/A   Overcast
1:15 AM 67.1 °F 34.0 °F 29% 30.16 in 10.0 mi SSW 6.9 mph - N/A   Overcast
1:35 AM 66.7 °F 34.0 °F 30% 30.16 in 10.0 mi South 5.8 mph - N/A   Overcast
1:55 AM 64.6 °F 34.5 °F 33% 30.16 in 10.0 mi South 6.9 mph - N/A   Overcast
2:15 AM 64.0 °F 34.3 °F 33% 30.16 in 10.0 mi South 9.2 mph - N/A   Mostly Cloudy
2:35 AM 64.6 °F 34.3 °F 32% 30.16 in 10.0 mi SSW 6.9 mph - N/A   Mostly Cloudy
2:55 AM 64.8 °F 34.2 °F 32% 30.15 in 10.0 mi SSW 6.9 mph - N/A   Overcast
3:15 AM 64.2 °F 34.2 °F 33% 30.16 in 10.0 mi SW 6.9 mph - N/A   Overcast
3:35 AM 63.5 °F 34.2 °F 33% 30.15 in 10.0 mi SSW 6.9 mph - N/A   Overcast
3:55 AM 63.0 °F 34.3 °F 34% 30.15 in 10.0 mi SSW 8.1 mph - N/A   Overcast
4:15 AM 63.1 °F 34.5 °F 34% 30.15 in 10.0 mi SSW 8.1 mph - N/A   Overcast
4:55 AM 62.8 °F 34.3 °F 35% 30.15 in 10.0 mi SW 4.6 mph - N/A   Overcast
5:15 AM 62.6 °F 34.3 °F 35% 30.15 in 10.0 mi Calm Calm - N/A   Overcast
5:35 AM 61.7 °F 35.2 °F 37% 30.15 in 10.0 mi West 3.5 mph - N/A   Overcast
5:55 AM 60.8 °F 36.1 °F 40% 30.15 in 10.0 mi WSW 4.6 mph - N/A   Mostly Cloudy
6:15 AM 59.7 °F 36.5 °F 42% 30.15 in 10.0 mi SW 3.5 mph - N/A   Mostly Cloudy
6:35 AM 59.5 °F 36.7 °F 43% 30.16 in 10.0 mi WSW 4.6 mph - N/A   Overcast
6:55 AM 59.7 °F 37.2 °F 43% 30.16 in 10.0 mi SW 9.2 mph - N/A   Mostly Cloudy
7:15 AM 60.4 °F 37.0 °F 42% 30.16 in 10.0 mi SW 9.2 mph - N/A   Mostly Cloudy
7:35 AM 60.4 °F 37.4 °F 42% 30.16 in 10.0 mi WSW 9.2 mph - N/A   Mostly Cloudy
7:55 AM 61.7 °F 37.2 °F 40% 30.16 in 10.0 mi WSW 5.8 mph - N/A   Scattered Clouds
8:15 AM 63.1 °F 37.2 °F 38% 30.17 in 10.0 mi West 8.1 mph - N/A   Scattered Clouds
8:35 AM 65.7 °F 36.7 °F 34% 30.17 in 10.0 mi WNW 8.1 mph - N/A   Overcast
8:55 AM 66.9 °F 36.5 °F 33% 30.17 in 10.0 mi NW 5.8 mph - N/A   Overcast
9:15 AM 67.3 °F 36.5 °F 32% 30.18 in 10.0 mi WNW 5.8 mph - N/A   Mostly Cloudy
9:35 AM 67.3 °F 36.5 °F 32% 30.18 in 10.0 mi WNW 8.1 mph - N/A   Scattered Clouds
9:55 AM 67.5 °F 36.7 °F 32% 30.18 in 10.0 mi WNW 10.4 mph - N/A   Clear
10:15 AM 68.2 °F 37.2 °F 32% 30.17 in 10.0 mi West 8.1 mph - N/A   Scattered Clouds
10:55 AM 70.7 °F 37.2 °F 29% 30.16 in 10.0 mi West 9.2 mph - N/A   Clear
11:15 AM 70.9 °F 37.0 °F 29% 30.16 in 10.0 mi West 4.6 mph - N/A   Clear
11:35 AM 70.7 °F 37.2 °F 29% 30.16 in 10.0 mi SSW 3.5 mph - N/A   Clear
11:55 AM 71.6 °F 37.6 °F 29% 30.15 in 10.0 mi West 8.1 mph - N/A   Scattered Clouds
12:15 PM 71.8 °F 37.4 °F 29% 30.14 in 10.0 mi WSW 3.5 mph - N/A   Mostly Cloudy
12:35 PM 71.6 °F 37.0 °F 28% 30.14 in 10.0 mi WSW 10.4 mph - N/A   Overcast
1:15 PM 70.7 °F 37.8 °F 30% 30.12 in 10.0 mi WNW 10.4 mph 24.2 mph N/A   Overcast
1:35 PM 71.1 °F 38.7 °F 31% 30.11 in 10.0 mi WSW 6.9 mph - N/A   Scattered Clouds
1:55 PM 71.4 °F 37.6 °F 29% 30.11 in 10.0 mi West 12.7 mph 18.4 mph N/A   Mostly Cloudy
2:35 PM 69.8 °F 40.3 °F 34% 30.08 in 10.0 mi WSW 9.2 mph - N/A   Mostly Cloudy
2:55 PM 72.3 °F 38.3 °F 29% 30.07 in 10.0 mi WNW 4.6 mph - N/A   Scattered Clouds
3:15 PM 72.7 °F 38.5 °F 29% 30.06 in 10.0 mi WNW 6.9 mph - N/A   Mostly Cloudy
3:35 PM 73.8 °F 38.3 °F 28% 30.05 in 10.0 mi NW 9.2 mph - N/A   Scattered Clouds
3:55 PM 73.0 °F 37.6 °F 28% 30.04 in 10.0 mi NW 3.5 mph - N/A   Clear
4:15 PM 71.8 °F 37.4 °F 29% 30.03 in 10.0 mi Calm Calm - N/A   Mostly Cloudy
4:35 PM 71.6 °F 38.1 °F 30% 30.02 in 10.0 mi ENE 10.4 mph - N/A   Overcast
4:55 PM 70.7 °F 39.2 °F 32% 30.02 in 10.0 mi NE 5.8 mph - N/A   Overcast
5:35 PM 68.7 °F 40.1 °F 35% 30.02 in 10.0 mi NNE 15.0 mph 19.6 mph N/A   Overcast
5:55 PM 67.6 °F 39.4 °F 36% 30.02 in 10.0 mi NNE 11.5 mph - N/A   Overcast
6:15 PM 66.9 °F 39.7 °F 37% 30.02 in 10.0 mi NNE 10.4 mph - N/A   Overcast
6:35 PM 66.2 °F 40.3 °F 39% 30.04 in 10.0 mi NE 6.9 mph - N/A   Overcast
7:15 PM 64.6 °F 41.2 °F 42% 30.06 in 10.0 mi North 4.6 mph - N/A   Overcast
7:35 PM 63.7 °F 42.3 °F 46% 30.05 in 10.0 mi NNE 9.2 mph - N/A   Light Drizzle
7:55 PM 62.2 °F 42.4 °F 48% 30.06 in 10.0 mi NNE 12.7 mph - N/A   Mostly Cloudy
8:15 PM 61.2 °F 43.0 °F 51% 30.06 in 10.0 mi NE 10.4 mph - N/A   Mostly Cloudy
8:35 PM 60.8 °F 43.2 °F 52% 30.06 in 10.0 mi NNE 10.4 mph - N/A   Mostly Cloudy
8:55 PM 59.9 °F 43.3 °F 54% 30.07 in 10.0 mi ENE 4.6 mph - N/A   Mostly Cloudy
9:35 PM 57.9 °F 43.5 °F 59% 30.07 in 10.0 mi North 5.8 mph - N/A   Mostly Cloudy
10:15 PM 57.0 °F 43.7 °F 61% 30.08 in 10.0 mi Calm Calm - N/A   Overcast
10:35 PM 57.6 °F 43.9 °F 60% 30.08 in 10.0 mi NNW 4.6 mph - N/A   Scattered Clouds
10:55 PM 56.1 °F 43.5 °F 63% 30.08 in 10.0 mi West 3.5 mph - N/A   Clear
11:15 PM 54.7 °F 43.7 °F 66% 30.08 in 10.0 mi NW 4.6 mph - N/A   Scattered Clouds
11:35 PM 53.8 °F 43.7 °F 69% 30.08 in 10.0 mi WNW 3.5 mph - N/A   Scattered Clouds
11:55 PM 53.1 °F 43.3 °F 70% 30.07 in 10.0 mi Calm Calm - N/A   Clear